Terminal Aerodrome Forecast
Issued by NWS Raleigh/Durham, NC

Home | Current Version | Previous Version | Text Only | Print | Product List | Glossary On
Versions: 1 2 3 4 5 6 7 8 9 10 11 12 13 14 15 16 17 18 19 20 21 22 23 24 25 26 27 28 29 30 31 32 33 34 35 36 37 38 39 40 41 42 43 44 45 46 47 48 49 50
000
FTUS42 KRAH 252101 AAB
TAFGSO
TAF AMD
KGSO 252101Z 2521/2618 01007KT 6SM BR SCT009 BKN020 OVC025
      TEMPO 2521/2523 3SM -RADZ BR BKN009 OVC015
     FM260000 VRB03KT P6SM BKN025
     FM260500 VRB03KT P6SM FEW040
      TEMPO 2608/2612 3SM BR=

USA.gov is the U.S. government's official web portal to all federal, state and local government web resources and services.